Location: Les Moreaux
(47.2278°N, 1.4966°E)
Time: 19:11:58
(UTC+00:00)

Cosmos 1535 Rocket - Pass Details

Date: 19 May 2025
Orbit: 947 x 1004 km, 83.0° (Epoch: 22 June)

Event Time Altitude Azimuth Distance (km) Brightness Sun altitude
Rises 23:12:18 0° 350° (N) 3,727 9.1 -22.2°
Reaches altitude 10° 23:14:51 10° 350° (N) 2,768 8.0 -22.3°
Maximum altitude 23:21:12 84° 264° (W) 995 4.4 -22.5°
Enters shadow 23:23:19 45° 180° (S) 1,310 4.7 -22.5°
